Weather History for Jackson Hawkins Field, MS

Change the Weather History Date:

Wednesday, March 27, 2013

  Actual Average (KJAN) Record (KJAN)
Temperature  
Mean Temperature 46 °F 60 °F  
Max Temperature 62 °F 71 °F 88 °F (1935)
Min Temperature 30 °F 48 °F 23 °F (1955)
Degree Days  
Heating Degree Days 20 7  
Month to date heating degree days 253  
Since 1 July heating degree days 2245  
Cooling Degree Days 0 1  
Month to date cooling degree days 24  
Year to date cooling degree days 34  
Moisture  
Dew Point 28 °F    
Average Humidity 55    
Maximum Humidity 92    
Minimum Humidity 27    
Precipitation  
Precipitation 0.00 in 0.17 in 6.28 in (1902)
Month to date precipitation 4.35  
Year to date precipitation 14.08  
Sea Level Pressure  
Sea Level Pressure 30.35 in    
Wind  
Wind Speed 1 mph (ENE)    
Max Wind Speed 8 mph    
Max Gust Speed -    
Visibility 9 miles    
Events      
T = Trace of Precipitation, MM = Missing Value Source: NWS Daily Summary

Daily Weather History Graph

Daily Weather History Graph

Search for Another Location

Airport:

Trip Planner

Search our weather history database for the weather conditions in past years. The results will help you decide how hot, cold, wet, or windy it might be!

Date:

Astronomy

Mar. 27, 2013 Rise Set
Actual Time 6:55 AM CDT 7:17 PM CDT
Civil Twilight 6:30 AM CDT 7:42 PM CDT
Nautical Twilight 6:01 AM CDT 8:10 PM CDT
Astronomical Twilight 5:32 AM CDT 8:40 PM CDT
Moon 7:56 PM CDT (3/27) 6:49 AM CDT (3/27)
Length of Visible Light 13h 11m
Length of Day
12h 22m
Full, 100% of the Moon is Illuminated
Mar 27
Full
Apr 2
Last Quarter
Apr 10
New
Apr 18
First Quarter
Apr 25
Full

Hourly Weather History & Observations

Time (CDT) Temp. Windchill Dew Point Humidity Pressure Visibility Wind Dir Wind Speed Gust Speed Precip Events Conditions
12:53 AM 34.0 °F - 28.0 °F 79% 30.38 in 10.0 mi Calm Calm - N/A   Clear
1:53 AM 34.0 °F - 28.0 °F 79% 30.37 in 10.0 mi Calm Calm - N/A   Clear
2:53 AM 33.1 °F - 28.0 °F 82% 30.37 in 10.0 mi Calm Calm - N/A   Clear
3:53 AM 32.0 °F - 28.0 °F 85% 30.36 in 10.0 mi Calm Calm - N/A   Clear
4:53 AM 30.9 °F - 28.0 °F 89% 30.36 in 10.0 mi Calm Calm - N/A   Clear
5:53 AM 30.9 °F - 28.0 °F 89% 30.38 in 10.0 mi Calm Calm - N/A   Clear
6:53 AM 30.9 °F - 28.0 °F 89% 30.40 in 10.0 mi Calm Calm - N/A   Clear
7:53 AM 32.0 °F - 30.0 °F 92% 30.41 in 9.0 mi Calm Calm - N/A   Clear
8:53 AM 42.1 °F 37.1 °F 30.0 °F 62% 30.43 in 10.0 mi ESE 8.1 mph - N/A   Clear
9:53 AM 46.0 °F 44.8 °F 28.0 °F 50% 30.44 in 10.0 mi East 3.5 mph - N/A   Clear
10:53 AM 48.0 °F - 25.0 °F 41% 30.44 in 10.0 mi Variable 3.5 mph - N/A   Clear
11:53 AM 51.1 °F - 26.1 °F 38% 30.43 in 10.0 mi Variable 4.6 mph - N/A   Clear
12:53 PM 52.0 °F - 24.1 °F 34% 30.41 in 10.0 mi Calm Calm - N/A   Clear
1:53 PM 55.9 °F - 24.1 °F 29% 30.37 in 10.0 mi Variable 3.5 mph - N/A   Clear
2:53 PM 57.9 °F - 25.0 °F 28% 30.33 in 10.0 mi SE 5.8 mph - N/A   Clear
3:53 PM 59.0 °F - 25.0 °F 27% 30.31 in 10.0 mi North 3.5 mph - N/A   Clear
4:53 PM 61.0 °F - 27.0 °F 27% 30.29 in 10.0 mi Variable 3.5 mph - N/A   Clear
5:53 PM 60.1 °F - 26.1 °F 27% 30.29 in 10.0 mi ENE 8.1 mph - N/A   Clear
6:53 PM 57.0 °F - 25.0 °F 29% 30.29 in 10.0 mi NE 4.6 mph - N/A   Clear
7:53 PM 54.0 °F - 25.0 °F 33% 30.29 in 10.0 mi ENE 3.5 mph - N/A   Clear
8:53 PM 48.9 °F - 30.0 °F 48% 30.28 in 10.0 mi Calm Calm - N/A   Clear
9:53 PM 46.9 °F - 30.9 °F 54% 30.29 in 7.0 mi Calm Calm - N/A   Clear
10:38 PM 44.6 °F - 30.2 °F 57% 30.30 in 2.5 mi Calm Calm - N/A   Haze
10:45 PM 46.4 °F - 30.2 °F 53% 30.30 in 7.0 mi Calm Calm - N/A   Clear
10:53 PM 46.0 °F - 30.0 °F 54% 30.29 in 10.0 mi Calm Calm - N/A   Clear
11:53 PM 44.1 °F - 30.9 °F 60% 30.29 in 10.0 mi Calm Calm - N/A   Clear